RH
49 45 44 43 42 41 40 38 35 30 25 20 18 17 17 19 19 17 15 14 14 15 17 15 15 15 15 15 14 13 12 12 12 12 13 14 15 16 17 16 15 17 16 16 16 16 17
51 50 47 44 42 41 40 38 36 34 32 27 22 21 21 20 18 16 16 15 15 15 16 15 15 16 16 16 15 14 13 13 13 13 13 14 15 16 16 16 16 17 17 17 19 19 20
58 52 50 48 44 41 40 39 37 36 33 31 29 23 21 20 18 18 17 18 18 18 17 16 14 15 17 16 15 15 15 15 15 15 15 15 16 17 17 18 17 17 18 19 21 21 23
60 57 54 51 49 46 42 39 37 35 34 32 30 29 26 21 19 18 18 18 18 20 18 19 18 17 18 17 17 16 16 17 17 17 17 17 17 17 18 19 19 20 20 22 21 22 23
61 59 57 54 50 49 46 42 38 35 35 34 33 31 29 28 26 23 22 20 20 20 19 20 20 20 21 19 20 19 19 19 19 20 19 18 17 18 21 22 24 23 23 21 21 23 25
62 60 58 56 54 51 47 45 43 40 36 35 34 33 31 30 29 29 28 25 23 22 22 23 22 23 25 24 23 23 22 21 21 22 22 22 20 23 25 24 24 23 23 23 24 25 25
62 61 59 57 55 53 51 48 44 43 41 38 36 36 34 32 31 30 29 28 27 28 28 27 28 28 27 26 25 25 23 23 24 25 26 24 25 28 24 22 23 23 24 26 26 25 26
59 60 60 59 56 54 52 50 48 46 43 40 37 36 36 34 34 32 31 31 30 31 29 29 28 28 28 27 26 27 25 25 26 27 26 27 28 25 25 24 25 25 27 29 27 27 29
54 55 55 56 56 54 53 51 49 48 46 44 40 38 37 35 33 32 31 30 29 28 29 29 28 27 27 27 27 27 26 26 26 26 26 28 27 26 26 26 28 28 29 29 30 31 33
37 42 45 46 48 47 47 48 47 46 45 44 42 40 35 34 34 32 30 28 27 27 30 30 29 29 28 27 27 27 27 26 27 27 27 27 28 28 28 30 29 31 30 32 33 38 41
24 25 27 27 28 31 34 36 39 40 41 40 39 38 35 31 30 30 29 28 28 29 41 31 29 27 27 27 28 30 28 26 27 27 28 29 29 30 32 32 30 32 32 34 37 43 44
23 23 22 22 22 21 20 21 24 29 32 34 35 35 36 35 31 30 29 28 29 38 40 30 28 28 29 30 30 29 29 28 28 28 29 30 31 31 32 31 32 33 36 42 43 50 58
22 22 22 22 22 21 21 21 20 19 19 22 25 28 31 33 32 32 30 30 39 42 31 32 31 30 30 30 29 29 29 30 32 32 35 33 33 32 33 34 36 39 46 58 58 67 60
18 19 20 22 22 22 22 22 21 21 20 17 16 18 22 26 28 27 28 33 37 31 30 30 29 29 30 27 27 28 29 30 28 30 35 37 42 36 36 38 43 45 48 63 63 62 57
19 19 19 19 20 20 21 22 22 22 21 18 17 15 15 20 24 25 28 35 35 30 30 28 29 30 29 29 28 29 30 30 29 31 38 42 41 39 41 43 45 50 55 56 65 63 69
19 20 21 22 22 22 22 21 21 20 19 18 17 16 16 20 21 23 30 34 29 28 29 30 31 31 31 32 32 32 31 30 34 36 40 43 47 41 43 46 48 53 56 65 75 93 89
23 22 23 24 24 24 23 24 24 23 22 20 20 18 20 22 22 22 28 29 26 26 28 31 31 32 31 32 30 32 32 32 36 41 45 48 49 49 48 49 54 60 65 69 74 94 97
30 31 29 28 28 29 31 32 32 30 27 26 26 26 23 22 23 25 27 26 28 28 28 29 29 28 29 29 31 34 35 36 39 46 51 52 58 60 55 57 61 65 69 72 85 93 95
51 49 45 45 46 46 44 44 43 42 38 35 33 32 27 29 29 30 33 34 34 34 31 29 30 32 34 36 41 38 37 40 46 52 56 59 65 75 72 69 72 72 73 80 91 99 94
62 66 68 64 64 61 60 61 62 62 63 64 62 56 43 40 36 37 37 34 36 36 35 35 38 41 43 45 49 50 52 57 60 63 68 73 74 79 80 76 82 88 88 89 95 98 92
87 90 87 85 83 82 86 79 82 82 82 84 84 81 78 73 68 62 58 53 51 52 48 49 50 55 61 66 68 67 68 68 71 74 76 80 81 80 76 77 81 79 83 88 98 96 98
89 88 89 88 85 85 88 91 92 91 92 94 93 90 89 85 82 80 78 74 71 72 73 72 73 74 80 80 80 79 81 83 83 82 85 90 95 97 86 88 90 83 86 85 85 84 88
81 81 80 78 74 72 72 80 83 87 91 93 95 96 96 88 86 87 84 84 84 85 82 82 83 84 85 87 86 87 87 87 88 90 91 95 98 99 86 91 95 84 78 82 81 81 83
39 46 51 56 67 70 62 58 66 71 77 84 89 91 93 87 88 86 84 86 87 90 90 88 87 87 88 91 91 89 88 86 87 83 87 95 97 99 91 95 93 74 73 73 79 81 81
30 31 31 36 38 35 37 49 46 52 59 69 79 85 89 81 78 77 81 85 87 90 89 91 90 91 93 93 96 95 90 88 76 73 80 86 94 95 91 88 75 75 74 78 80 85 89
26 24 25 26 27 27 29 31 36 36 37 45 54 70 87 85 73 81 81 78 79 79 80 79 86 89 94 97 96 91 88 81 75 68 66 74 81 90 86 88 86 74 76 83 91 86 87
29 31 29 27 25 24 23 24 24 25 26 28 30 38 60 74 66 79 81 84 85 87 86 81 80 82 87 90 94 92 83 79 83 76 70 76 82 85 91 97 97 82 86 97 98 91 94
33 32 32 32 32 31 29 26 25 24 24 26 27 24 36 40 45 54 57 72 81 85 90 88 82 79 82 79 82 84 83 69 75 70 69 77 90 90 95 98 97 95 97 96 97 97 95
33 33 33 33 32 31 31 32 31 29 26 27 26 26 33 36 28 26 32 39 40 40 55 55 62 71 78 87 81 87 98 97 98 91 92 98 98 97 97 97 96 95 95 96 97 96 96